Weather History for KOXV - November, 2013

Change the Weather History Date:

Saturday, November 23, 2013

  Actual Average Record
Temperature  
Mean Temperature 12 °F -  
Max Temperature 19 °F 44 °F 67 °F (1966)
Min Temperature 5 °F 27 °F 4 °F (1950)
Degree Days  
Heating Degree Days 53    
Moisture  
Dew Point 4 °F    
Average Humidity 67    
Maximum Humidity 79    
Minimum Humidity 53    
Precipitation  
Precipitation 0.00 in - - ()
Sea Level Pressure  
Sea Level Pressure 30.73 in    
Wind  
Wind Speed 12 mph (NNW)    
Max Wind Speed 20 mph    
Max Gust Speed 28 mph    
Visibility 10 miles    
Events      
Averages and records for this station are not official NWS values.
T = Trace of Precipitation, MM = Missing Value Source: NWS Daily Summary

Daily Weather History Graph

Daily Weather History Graph

Search for Another Location

Airport or City:

Trip Planner

Search our weather history database for the weather conditions in past years. The results will help you decide how hot, cold, wet, or windy it might be!

Date:

Astronomy

Nov. 23, 2013 Rise Set
Actual Time 7:10 AM CST 4:47 PM CST
Civil Twilight 6:40 AM CST 5:17 PM CST
Nautical Twilight 6:06 AM CST 5:51 PM CST
Astronomical Twilight 5:33 AM CST 6:24 PM CST
Moon 10:17 PM CST (11/23) 11:26 AM CST (11/23)
Length of Visible Light 10h 37m
Length of Day
9h 36m
Waning Gibbous, 69% of the Moon is Illuminated
Nov 23
Waning Gibbous
Nov 25
Last Quarter
Dec 2
New
Dec 9
First Quarter
Dec 17
Full

Hourly Weather History & Observations

Time (CST) Temp. Windchill Dew Point Humidity Pressure Visibility Wind Dir Wind Speed Gust Speed Precip Events Conditions
12:15 AM 14.0 °F 2.9 °F 8.6 °F 79% 30.57 in 10.0 mi WNW 8.1 mph - N/A   Clear
12:35 AM 14.0 °F 2.0 °F 8.6 °F 79% 30.58 in 10.0 mi NW 9.2 mph - N/A   Clear
12:55 AM 12.2 °F 1.7 °F 6.8 °F 79% 30.58 in 10.0 mi WNW 6.9 mph - N/A   Partly Cloudy
1:15 AM 14.0 °F 2.0 °F 8.6 °F 79% 30.60 in 10.0 mi WNW 9.2 mph - N/A   Scattered Clouds
1:35 AM 14.0 °F 2.0 °F 8.6 °F 79% 30.60 in 10.0 mi WNW 9.2 mph - N/A   Mostly Cloudy
1:55 AM 15.8 °F 6.1 °F 10.4 °F 79% 30.60 in 10.0 mi WNW 6.9 mph - N/A   Scattered Clouds
2:15 AM 17.6 °F 5.7 °F 10.4 °F 73% 30.61 in 10.0 mi NW 10.4 mph - N/A   Mostly Cloudy
2:35 AM 19.4 °F 7.2 °F 12.2 °F 74% 30.61 in 10.0 mi NNW 11.5 mph - N/A   Mostly Cloudy
2:55 AM 19.4 °F 7.9 °F 12.2 °F 74% 30.62 in 10.0 mi NNW 10.4 mph - N/A   Mostly Cloudy
3:15 AM 19.4 °F 6.0 °F 12.2 °F 74% 30.62 in 10.0 mi NNW 13.8 mph - N/A   Partly Cloudy
3:35 AM 19.4 °F 5.0 °F 10.4 °F 68% 30.61 in 10.0 mi NNW 16.1 mph 23.0 mph N/A   Clear
3:55 AM 19.4 °F 4.1 °F 10.4 °F 68% 30.62 in 10.0 mi NNW 18.4 mph - N/A   Partly Cloudy
4:15 AM 19.4 °F 5.0 °F 10.4 °F 68% 30.63 in 10.0 mi NNW 16.1 mph 21.9 mph N/A   Scattered Clouds
4:35 AM 17.6 °F 1.7 °F 8.6 °F 68% 30.63 in 10.0 mi NNW 18.4 mph 26.5 mph N/A   Scattered Clouds
4:55 AM 17.6 °F 2.7 °F 6.8 °F 63% 30.64 in 10.0 mi NNW 16.1 mph 23.0 mph N/A   Partly Cloudy
5:15 AM 15.8 °F 0.3 °F 6.8 °F 68% 30.65 in 10.0 mi NNW 16.1 mph 25.3 mph N/A   Scattered Clouds
5:35 AM 15.8 °F -0.2 °F 5.0 °F 62% 30.66 in 10.0 mi NNW 17.3 mph - N/A   Scattered Clouds
5:55 AM 14.0 °F -3.4 °F 5.0 °F 67% 30.67 in 10.0 mi NNW 19.6 mph - N/A   Partly Cloudy
6:15 AM 14.0 °F -0.8 °F 5.0 °F 67% 30.68 in 10.0 mi NNW 13.8 mph - N/A   Clear
6:35 AM 14.0 °F -3.0 °F 3.2 °F 62% 30.69 in 10.0 mi NNW 18.4 mph 26.5 mph N/A   Clear
6:55 AM 12.2 °F -4.8 °F 3.2 °F 67% 30.70 in 10.0 mi NNW 17.3 mph 24.2 mph N/A   Clear
7:15 AM 12.2 °F -4.8 °F 3.2 °F 67% 30.72 in 10.0 mi NNW 17.3 mph 24.2 mph N/A   Clear
7:35 AM 12.2 °F -5.3 °F 3.2 °F 67% 30.73 in 10.0 mi NNW 18.4 mph - N/A   Partly Cloudy
7:55 AM 12.2 °F -5.3 °F 3.2 °F 67% 30.74 in 10.0 mi NNW 18.4 mph 27.6 mph N/A   Scattered Clouds
8:15 AM 12.2 °F -5.3 °F 3.2 °F 67% 30.75 in 10.0 mi NNW 18.4 mph 25.3 mph N/A   Clear
8:35 AM 10.4 °F -7.2 °F 3.2 °F 73% 30.76 in 10.0 mi NNW 17.3 mph 24.2 mph N/A   Clear
8:55 AM 10.4 °F -6.6 °F 3.2 °F 73% 30.77 in 10.0 mi NNW 16.1 mph 24.2 mph N/A   Clear
9:15 AM 12.2 °F -3.1 °F 3.2 °F 67% 30.78 in 10.0 mi NNW 13.8 mph 19.6 mph N/A   Clear
9:35 AM 12.2 °F -3.1 °F 5.0 °F 73% 30.78 in 10.0 mi NNW 13.8 mph 23.0 mph N/A   Clear
9:55 AM 14.0 °F -2.5 °F 5.0 °F 67% 30.79 in 10.0 mi NNW 17.3 mph - N/A   Clear
10:15 AM 14.0 °F -3.0 °F 3.2 °F 62% 30.80 in 10.0 mi NNW 18.4 mph - N/A   Clear
10:35 AM 14.0 °F -2.0 °F 3.2 °F 62% 30.80 in 10.0 mi NNW 16.1 mph 23.0 mph N/A   Clear
10:55 AM 14.0 °F -1.4 °F 3.2 °F 62% 30.80 in 10.0 mi NNW 15.0 mph 21.9 mph N/A   Clear
11:15 AM 14.0 °F -1.4 °F 5.0 °F 67% 30.80 in 10.0 mi NNW 15.0 mph - N/A   Partly Cloudy
11:35 AM 15.8 °F 0.3 °F 5.0 °F 62% 30.78 in 10.0 mi NNW 16.1 mph - N/A   Clear
11:55 AM 15.8 °F -0.2 °F 5.0 °F 62% 30.78 in 10.0 mi NNW 17.3 mph - N/A   Clear
12:15 PM 15.8 °F -0.2 °F 3.2 °F 58% 30.78 in 10.0 mi NNW 17.3 mph 24.2 mph N/A   Clear
12:35 PM 15.8 °F 0.9 °F 3.2 °F 58% 30.79 in 10.0 mi NNW 15.0 mph 20.7 mph N/A   Clear
12:55 PM 15.8 °F 2.7 °F 3.2 °F 58% 30.78 in 10.0 mi North 11.5 mph 23.0 mph N/A   Clear
1:15 PM 15.8 °F -0.2 °F 3.2 °F 58% 30.78 in 10.0 mi NW 17.3 mph - N/A   Clear
1:35 PM 15.8 °F 1.4 °F 3.2 °F 58% 30.78 in 10.0 mi North 13.8 mph 21.9 mph N/A   Clear
1:55 PM 17.6 °F 3.7 °F 3.2 °F 53% 30.78 in 10.0 mi North 13.8 mph 23.0 mph N/A   Clear
2:15 PM 17.6 °F 3.2 °F 3.2 °F 53% 30.78 in 10.0 mi NNW 15.0 mph 21.9 mph N/A   Clear
2:35 PM 17.6 °F 3.7 °F 3.2 °F 53% 30.78 in 10.0 mi NNW 13.8 mph 21.9 mph N/A   Clear
2:55 PM 17.6 °F 2.7 °F 3.2 °F 53% 30.78 in 10.0 mi NNW 16.1 mph - N/A   Clear
3:15 PM 17.6 °F 3.2 °F 3.2 °F 53% 30.78 in 10.0 mi North 15.0 mph - N/A   Clear
3:35 PM 17.6 °F 4.3 °F 3.2 °F 53% 30.78 in 10.0 mi NNW 12.7 mph 19.6 mph N/A   Clear
3:55 PM 17.6 °F 4.3 °F 5.0 °F 58% 30.78 in 10.0 mi NNW 12.7 mph - N/A   Clear
4:15 PM 15.8 °F 3.4 °F 3.2 °F 58% 30.79 in 10.0 mi NNW 10.4 mph 17.3 mph N/A   Clear
4:35 PM 15.8 °F 2.7 °F 3.2 °F 58% 30.79 in 10.0 mi NNW 11.5 mph - N/A   Clear
4:55 PM 15.8 °F 4.2 °F 3.2 °F 58% 30.79 in 10.0 mi NNW 9.2 mph 16.1 mph N/A   Clear
5:15 PM 14.0 °F 3.9 °F 3.2 °F 62% 30.79 in 10.0 mi NNW 6.9 mph - N/A   Clear
5:35 PM 12.2 °F 0.7 °F 3.2 °F 67% 30.79 in 10.0 mi NW 8.1 mph - N/A   Clear
5:55 PM 12.2 °F 0.7 °F 3.2 °F 67% 30.78 in 10.0 mi NNW 8.1 mph - N/A   Clear
6:15 PM 10.4 °F -0.4 °F 3.2 °F 73% 30.78 in 10.0 mi NW 6.9 mph - N/A   Clear
6:35 PM 12.2 °F 2.9 °F 3.2 °F 67% 30.77 in 10.0 mi NNW 5.8 mph - N/A   Clear
6:55 PM 12.2 °F 1.7 °F 3.2 °F 67% 30.77 in 10.0 mi North 6.9 mph - N/A   Clear
7:15 PM 10.4 °F 4.0 °F 1.4 °F 67% 30.77 in 10.0 mi NNW 3.5 mph - N/A   Clear
7:35 PM 6.8 °F -0.1 °F 1.4 °F 79% 30.77 in 10.0 mi NW 3.5 mph - N/A   Clear
7:55 PM 8.6 °F 2.0 °F 1.4 °F 73% 30.77 in 10.0 mi West 3.5 mph - N/A   Clear
8:15 PM 10.4 °F 0.8 °F 1.4 °F 67% 30.77 in 10.0 mi WNW 5.8 mph - N/A   Clear
8:35 PM 8.6 °F -1.3 °F -0.4 °F 67% 30.77 in 10.0 mi WNW 5.8 mph - N/A   Clear
8:55 PM 6.8 °F -4.8 °F -0.4 °F 72% 30.78 in 10.0 mi WNW 6.9 mph - N/A   Clear
9:15 PM 5.0 °F -5.6 °F -0.4 °F 78% 30.78 in 10.0 mi WNW 5.8 mph - N/A   Clear
9:35 PM 8.6 °F 0.1 °F 1.4 °F 73% 30.77 in 10.0 mi WNW 4.6 mph - N/A   Clear
9:55 PM 6.8 °F -3.5 °F 1.4 °F 79% 30.77 in 10.0 mi NW 5.8 mph - N/A   Clear
10:15 PM 6.8 °F -3.5 °F 1.4 °F 79% 30.77 in 10.0 mi WNW 5.8 mph - N/A   Clear
10:35 PM 6.8 °F -2.0 °F -0.4 °F 72% 30.76 in 10.0 mi NW 4.6 mph - N/A   Clear
10:55 PM 6.8 °F -2.0 °F 1.4 °F 79% 30.76 in 10.0 mi WNW 4.6 mph - N/A   Clear
11:15 PM 8.6 °F -2.6 °F 1.4 °F 73% 30.75 in 10.0 mi NNW 6.9 mph - N/A   Clear
11:35 PM 5.0 °F -6.9 °F -0.4 °F 78% 30.75 in 10.0 mi WNW 6.9 mph - N/A   Clear
11:55 PM 5.0 °F -5.6 °F -0.4 °F 78% 30.75 in 10.0 mi NW 5.8 mph - N/A   Clear